Home > Time Zones > World Clock > Weather > Spain > Cadiz > Past weeks

Flag for Spain Weather past 2 weeks in Cadiz, Cádiz, Spain

Now
61 °F

Partly sunny.


Feels Like: 61 °F
Forecast: 53 / 60 °F
Wind: 18 mph from West

Location: Rota Airport

Current Time: Jan 30, 2015 at 2:16:26 PM

Latest Report: Jan 30, 2015 at 1:00 PM


Visibility: N/A

Pressure: 30.01 "Hg

Humidity: 88%

Dew point: 57 °F

Location of CadizLocation

Historic Weather in Cadiz — Graph

°F

Cadiz temperature yesterday

Maximum temperature yesterday: 59 °F (at 6:00 PM)
Minimum temperature yesterday: 45 °F (at 7:00 AM)
Average temperature yesterday: 53 °F

Past Weeks' High & Low Weather Summary

 TemperatureHumidityPressure
High63 °F (Jan 15, 2:00 PM)100% (Jan 17, 7:00 AM)30.39 "Hg (Jan 17, 7:00 AM)
Low37 °F (Jan 17, 7:00 AM)42% (Jan 26, 5:00 PM)29.68 "Hg (Jan 19, 5:00 AM)
Average51 °F79%30.15 "Hg
* Reported Jan 15 1:00 PM — Jan 30 1:00 PM, Cadiz, Weather by CustomWeather, © 2014

Note: Actual official high and low records may vary slightly from our data, if they occured in-between our weather recording intervals... More about our weather records

Advertising

Cadiz weather history for previous 24 hours

 ConditionsComfort  
Time TempWeatherWind HumidityBarometerVisibility
1:00 PM
Jan 30
61 °FPartly sunny.18 mph88%30.01 "HgN/A
12:00 PM59 °FPartly sunny.17 mph88%30.04 "HgN/A
11:00 AM59 °FPartly sunny.16 mph94%30.04 "HgN/A
10:00 AM59 °FMostly cloudy.13 mph88%30.04 "HgN/A
9:00 AM57 °FMostly cloudy.14 mph94%30.04 "HgN/A
8:00 AM57 °FMostly cloudy.13 mph94%30.04 "HgN/A
7:00 AM57 °FPartly cloudy.17 mph94%30.04 "Hg5 mi
6:00 AM57 °FPassing clouds.16 mph88%30.04 "HgN/A
5:00 AM57 °FPassing clouds.9 mph88%30.07 "HgN/A
4:00 AM57 °FPassing clouds.10 mph88%30.07 "HgN/A
3:00 AM57 °FPartly cloudy.14 mph94%30.07 "HgN/A
2:00 AM57 °FPassing clouds.16 mph94%30.09 "HgN/A
1:00 AM57 °FPassing clouds.14 mph94%30.09 "HgN/A
12:00 AM57 °FPassing clouds.15 mph94%30.09 "HgN/A
11:00 PM
Jan 29
57 °FPassing clouds.10 mph94%30.12 "HgN/A
10:00 PM57 °FPassing clouds.15 mph94%30.12 "HgN/A
9:00 PM57 °FPassing clouds.15 mph94%30.12 "HgN/A
8:00 PM57 °FPassing clouds.10 mph94%30.12 "HgN/A
7:00 PM57 °FPassing clouds.10 mph88%30.12 "HgN/A
6:00 PM59 °FPartly sunny.12 mph82%30.12 "HgN/A
5:00 PM57 °FPartly sunny.14 mph88%30.15 "HgN/A
4:00 PM57 °FPartly sunny.12 mph88%30.15 "HgN/A
3:00 PM57 °FPartly sunny.16 mph82%30.15 "HgN/A
2:00 PM57 °FPartly sunny.15 mph77%30.18 "HgN/A
Weather by CustomWeather, © 2014

See weather overviewHow to use our weather pages